Weather Service Report


618 
ASUS46 KSTO 170015
RWRCA 

NORTHERN AND CENTRAL CA REGIONAL WEATHER ROUNDUP
NATIONAL WEATHER SERVICE SACRAMENTO CA 
500 PM PDT MON OCT 16 2017

NOTE: FAIR INDICATES FEW OR NO CLOUDS BELOW 12,000 FEET WITH NO
SIGNIFICANT WEATHER AND/OR OBSTRUCTIONS TO VISIBILITY.

CAZ001-003-170100-
NORTHWEST AREA
  
CITY           SKY/WX    TMP DP  RH WIND       PRES   REMARKS
CRESCENT CITY  MOSUNNY   54  50  86 N7        30.12F                  
UKIAH          MOSUNNY   83  28  13 W3        30.06F                  
$$

CAZ006-505>513-170100-
BAY AREA
  
CITY           SKY/WX    TMP DP  RH WIND       PRES   REMARKS
SANTA ROSA     PTSUNNY   87  29  12 S3        30.02F HAZE             
SAN RAFAEL     N/A       80  MM  MM MISG
NAPA           MOSUNNY   78  35  21 SW5       30.04F                  
CONCORD        MOSUNNY   85  31  14 E6        30.04F                  
OAKLAND CITY   N/A      MM  MM  MM MISG
OAKLAND        PTSUNNY   79  47  32 NW7       30.03F                  
SAN FRAN CITY  N/A       82  MM  14 MISG
SAN FRAN ARPT  MOSUNNY   81  30  15 CALM      30.03F                  
LIVERMORE      SUNNY     82  28  14 NE10      30.04F                  
HAYWARD        MOSUNNY   83  33  16 W7        30.03F                  
REDWOOD CITY   N/A       84  MM  21 MISG
MOFFETT ARPT   SUNNY     80  42  25 NW7       30.03F                  
SAN JOSE ARPT  MOSUNNY   84  39  20 W6        30.03F                  
$$
CAZ034-037-514>518-170100-
CENTRAL COAST
  
CITY           SKY/WX    TMP DP  RH WIND       PRES   REMARKS
SALINAS        SUNNY     83  37  19 NW13      30.03R                  
MONTEREY       SUNNY     83  27  13 SW10      30.04F                  
SAN LUIS OBISP SUNNY     81  36  19 NW15      30.02F                  
SANTA MARIA    SUNNY     78  38  23 NW8       30.04S                  
$$
CAZ015-016-170100-
NORTHERN SACRAMENTO VALLEY
  
CITY           SKY/WX    TMP DP  RH WIND       PRES   REMARKS
REDDING        SUNNY     86  18   8 SE5       30.04F                  
RED BLUFF      SUNNY     86  20   9 S3        30.05F                  
OROVILLE       MOSUNNY   81  34  18 W3        30.06F                  
$$
CAZ016>018-170100-
SOUTHERN SACRAMENTO VALLEY
  
CITY           SKY/WX    TMP DP  RH WIND       PRES   REMARKS
AUBURN         PTSUNNY   79 N/A N/A W3        30.11F                  
BEALE AFB      SUNNY     80  37  21 N3        30.03F                  
LINCOLN        FAIR      82  27  13 N6        30.04F                  
MARYSVILLE     PTSUNNY   83  35  18 N3        30.05F                  
SAC INTL ARPT  PTSUNNY   83  31  15 N6        30.04F                  
MATHER AIRPORT NOT AVBL                                               
DOWNTOWN SAC   N/A       80  MM  MM MISG
SAC EXEC ARPT  PTSUNNY   81  31  16 CALM      30.05F                  
VACAVILLE      MOSUNNY   83  30  14 NE5       30.06F                  
TRAVIS AFB     MOSUNNY   81  31  16 E6        30.03F                  
$$
CAZ019>021-170100-
SAN JOAQUIN VALLEY
  
CITY           SKY/WX    TMP DP  RH WIND       PRES   REMARKS
STOCKTON       MOSUNNY   84  32  15 N6        30.04F                  
MODESTO        MOSUNNY   82  34  17 NW6       30.04F                  
MERCED         MOSUNNY   82  33  17 W3        30.04F                  
LEMOORE        MOSUNNY   87  40  19 NE7       30.06S                  
FRESNO         MOSUNNY   82  38  20 NW3       30.06F                  
HANFORD        SUNNY     83  42  23 CALM      30.06F                  
PORTERVILLE    SUNNY     84  40  21 NW7       30.06F                  
BAKERSFIELD    SUNNY     83  42  23 W9        30.05F                  
$$
CAZ011-012-071-170100-
NORTHERN MOUNTAINS
  
CITY           SKY/WX    TMP DP  RH WIND       PRES   REMARKS
YREKA          SUNNY     72  18  13 S3        30.19F                  
MOUNT SHASTA   SUNNY     72  25  17 W3        30.20F                  
ALTURAS        SUNNY     76  11   8 VRB5      30.23F                  
$$
CAZ011-012-071-170100-
SIERRA NEVADA MTNS
  
CITY           SKY/WX    TMP DP  RH WIND       PRES   REMARKS
BLUE CANYON    PTSUNNY   69  19  15 W3        30.32S                  
TAHOE VLY ARPT PTSUNNY   63  24  22 CALM      30.35S                  
MAMMOTH LAKES  FAIR      64  11  12 E9        30.39S                  
$$
  

Return to Home page


Western Regional Climate Center, wrcc@dri.edu